565  
ASUS45 KCYS 141910  
RWRWY  
 
WYOMING REGIONAL WEATHER ROUNDUP  
NATIONAL WEATHER SERVICE CHEYENNE WY  
100 PM MDT TUE AUG 14 2018  
 
NOTE: "FAIR" INDICATES FEW OR NO CLOUDS BELOW 12,000 FEET  
WITH NO SIGNIFICANT WEATHER AND/OR S TO VISIBILITY
.  
 
WYZ001-142000-  
YELLOWSTONE NATIONAL PARK  
 
CITY SKY/WX TMP DP RH WIND PRES REMARKS
 
LK YELLOWSTONE N/A 69 31 24 SW8 30.24F  
W YELLOWSTONE NOT AVBL  
 

 
WYZ002>013-054>058-071-098>099-142000-  
NORTHERN WYOMING  
 
CITY SKY/WX TMP DP RH WIND PRES REMARKS
 
JACKSON FAIR 80 31 16 W13G22 30.14S  
CODY FAIR 70 50 49 NE13 30.08F  
GREYBULL FAIR 80 53 39 VRB3 29.98F  
WORLAND FAIR 79 52 38 VRB5 29.98F  
SHERIDAN FAIR 78 50 37 SE14G23 30.03F  
BUFFALO FAIR 72 52 49 S15 30.10F  
GILLETTE FAIR 74 52 46 S14 30.07F  
HULETT FAIR 70 55 60 E3 30.11F  
NEWCASTLE FAIR 63 52 67 SE8 30.15F  
 

 
WYZ014>020-022>026-101>103-142000-  
CENTRAL WYOMING  
 
CITY SKY/WX TMP DP RH WIND PRES REMARKS
 
BIG PINEY FAIR 82 31 15 NW13 30.20F  
PINEDALE FAIR 77 28 16 NW13G21 30.21S  
DUBOIS FAIR 79 16 9 NW23G30 30.14F  
LANDER FAIR 80 52 37 N6 30.07F  
RIVERTON FAIR 77 51 40 S5 30.05F  
CASPER FAIR 75 54 47 VRB7 30.10F  
DOUGLAS FAIR 74 57 55 SE18G26 30.10F  
 

 
WYZ021-027>030-104>119-142000-  
SOUTHERN WYOMING  
 
CITY SKY/WX TMP DP RH WIND PRES REMARKS
 
EVANSTON FAIR 85 33 15 W20G29 30.20F  
KEMMERER FAIR 81 27 13 W17G23 30.21F  
ROCK SPRINGS FAIR 84 33 16 NW10G16 30.16F  
DIXON FAIR 78 39 25 NW3 30.19F  
RAWLINS FAIR 78 42 27 SE10 30.18F  
SARATOGA FAIR 77 37 24 E3 30.21F  
LARAMIE FAIR 78 46 32 S18 30.17F  
CHEYENNE FAIR 75 56 51 E12G20 30.17F  
TORRINGTON FAIR 76 57 51 VRB3 30.11F  
PINE BLUFFS FAIR 73 57 56 E7 30.15F  
 

 
 
 
CLICK HERE TO GO TO PREVIOUS BULLETINS.

The Nexlab WY Page Main Text Page